Location: ??????
(55.6130°N, 37.7882°E)
Time: 12:12:27
(UTC+00:00)

Cosmos 2333 Rocket - Pass Details

Date: 14 April 2024
Orbit: 840 x 862 km, 70.8° (Epoch: 18 May)

Event Time Altitude Azimuth Distance (km) Brightness Sun altitude
Exits shadow 00:04:52 28° 237° (WSW) 1,548 3.0 -17.3°
Maximum altitude 00:07:53 63° 310° (NW) 941 2.4 -17.0°
Drops below altitude 10° 00:13:31 10° 32° (NNE) 2,469 5.9 -16.5°
Sets 00:16:00 0° 36° (NE) 3,408 7.1 -16.2°
